QPF
0.00 0.00 0.00 0.00 0.00 0.00 0.00 0.00 0.00 0.00 0.00 0.00 0.00 0.00 0.00 0.00 0.00 0.00 0.00 0.00 0.00 0.00 0.00 0.00 0.00 0.00 0.00 0.00 0.00 0.00 0.00 0.00 0.00 0.01 0.00 0.01 0.00 0.00 0.00 0.00 0.00 0.02 0.14 0.75
0.00 0.00 0.00 0.00 0.00 0.00 0.00 0.00 0.00 0.00 0.00 0.00 0.00 0.00 0.00 0.00 0.00 0.00 0.00 0.00 0.00 0.00 0.00 0.00 0.00 0.00 0.00 0.00 0.00 0.00 0.00 0.00 0.00 0.00 0.00 0.00 0.00 0.00 0.00 0.01 0.01 0.02 0.03 0.23
0.00 0.00 0.00 0.00 0.00 0.00 0.00 0.00 0.00 0.00 0.00 0.00 0.00 0.00 0.00 0.00 0.00 0.00 0.00 0.00 0.00 0.00 0.00 0.00 0.00 0.00 0.00 0.00 0.00 0.00 0.00 0.00 0.00 0.00 0.00 0.00 0.00 0.00 0.01 0.01 0.00 0.01 0.07 0.16
0.00 0.00 0.00 0.00 0.00 0.00 0.00 0.00 0.00 0.00 0.00 0.00 0.00 0.00 0.00 0.00 0.00 0.00 0.00 0.00 0.00 0.00 0.00 0.00 0.00 0.00 0.00 0.00 0.00 0.00 0.00 0.00 0.00 0.00 0.00 0.00 0.00 0.00 0.00 0.00 0.00 0.01 0.02 0.16
0.00 0.00 0.00 0.00 0.00 0.00 0.00 0.00 0.00 0.00 0.00 0.00 0.00 0.00 0.00 0.00 0.00 0.00 0.00 0.00 0.00 0.00 0.00 0.00 0.00 0.00 0.00 0.00 0.00 0.00 0.00 0.00 0.00 0.00 0.00 0.00 0.00 0.01 0.00 0.00 0.01 0.03 0.03 0.03
0.00 0.00 0.00 0.00 0.00 0.00 0.00 0.00 0.00 0.00 0.00 0.00 0.00 0.00 0.00 0.00 0.00 0.00 0.00 0.00 0.00 0.00 0.00 0.00 0.00 0.00 0.00 0.00 0.00 0.00 0.00 0.00 0.00 0.00 0.00 0.00 0.00 0.01 0.01 0.00 0.01 0.02 0.03 0.10
0.00 0.00 0.00 0.00 0.00 0.00 0.00 0.00 0.00 0.00 0.00 0.00 0.00 0.00 0.00 0.00 0.00 0.00 0.00 0.00 0.00 0.00 0.00 0.00 0.00 0.00 0.00 0.00 0.00 0.00 0.00 0.00 0.00 0.00 0.00 0.00 0.00 0.00 0.00 0.00 0.00 0.01 0.01 0.03
0.00 0.00 0.00 0.00 0.00 0.00 0.00 0.00 0.00 0.00 0.00 0.00 0.00 0.00 0.00 0.00 0.00 0.00 0.00 0.00 0.00 0.00 0.00 0.00 0.00 0.00 0.00 0.00 0.00 0.00 0.00 0.00 0.00 0.00 0.00 0.00 0.00 0.00 0.00 0.00 0.00 0.01 0.00 0.00
0.00 0.00 0.00 0.00 0.00 0.00 0.00 0.00 0.00 0.01 0.00 0.01 0.00 0.00 0.00 0.00 0.00 0.00 0.00 0.00 0.00 0.00 0.00 0.00 0.00 0.00 0.00 0.00 0.00 0.00 0.00 0.00 0.00 0.00 0.00 0.00 0.00 0.00 0.00 0.00 0.00 0.00 0.00 0.01
0.00 0.00 0.00 0.00 0.00 0.00 0.00 0.00 0.02 0.03 0.01 0.01 0.00 0.00 0.01 0.00 0.00 0.00 0.00 0.00 0.00 0.00 0.00 0.00 0.00 0.00 0.00 0.00 0.00 0.00 0.00 0.00 0.00 0.00 0.00 0.00 0.00 0.00 0.00 0.00 0.00 0.00 0.00 0.00
0.00 0.00 0.00 0.01 0.01 0.01 0.01 0.01 0.01 0.04 0.01 0.01 0.01 0.08 0.09 0.01 0.00 0.00 0.00 0.00 0.00 0.00 0.00 0.00 0.00 0.00 0.00 0.00 0.00 0.00 0.00 0.00 0.00 0.00 0.00 0.00 0.00 0.00 0.00 0.00 0.00 0.00 0.00 0.00
0.02 0.02 0.00 0.00 0.00 0.00 0.01 0.02 0.02 0.02 0.02 0.04 0.06 0.06 0.07 0.04 0.00 0.00 0.00 0.00 0.01 0.01 0.00 0.01 0.01 0.00 0.01 0.01 0.01 0.01 0.00 0.00 0.00 0.00 0.00 0.00 0.00 0.00 0.01 0.01 0.00 0.00 0.00 0.00
0.02 0.04 0.04 0.02 0.03 0.01 0.02 0.02 0.02 0.03 0.04 0.03 0.07 0.08 0.22 0.13 0.03 0.01 0.00 0.00 0.01 0.01 0.01 0.01 0.01 0.02 0.01 0.01 0.02 0.03 0.01 0.05 0.06 0.02 0.00 0.00 0.00 0.00 0.00 0.00 0.01 0.01 0.01 0.00
0.04 0.01 0.02 0.05 0.03 0.02 0.01 0.00 0.00 0.01 0.02 0.03 0.04 0.04 0.13 0.21 0.14 0.06 0.00 0.02 0.03 0.02 0.03 0.02 0.02 0.02 0.02 0.03 0.03 0.05 0.09 0.10 0.07 0.02 0.01 0.01 0.00 0.00 0.00 0.00 0.00 0.00 0.01 0.01
0.15 0.04 0.01 0.01 0.01 0.00 0.00 0.00 0.00 0.00 0.00 0.00 0.00 0.00 0.00 0.00 0.03 0.12 0.03 0.03 0.06 0.06 0.03 0.04 0.02 0.03 0.03 0.02 0.03 0.06 0.07 0.07 0.04 0.01 0.01 0.01 0.01 0.01 0.00 0.00 0.00 0.00 0.00 0.00
0.24 0.11 0.01 0.01 0.01 0.00 0.00 0.00 0.00 0.00 0.00 0.00 0.00 0.00 0.00 0.00 0.02 0.02 0.08 0.10 0.09 0.09 0.05 0.05 0.05 0.04 0.03 0.02 0.02 0.04 0.04 0.03 0.01 0.00 0.00 0.00 0.01 0.01 0.01 0.01 0.00 0.00 0.01 0.01
0.19 0.23 0.03 0.01 0.00 0.00 0.00 0.00 0.00 0.00 0.00 0.00 0.00 0.00 0.01 0.01 0.02 0.01 0.02 0.04 0.06 0.14 0.03 0.03 0.03 0.03 0.03 0.02 0.01 0.02 0.01 0.01 0.00 0.00 0.01 0.00 0.00 0.00 0.00 0.00 0.00 0.01 0.01 0.01
0.17 0.14 0.03 0.00 0.00 0.00 0.00 0.00 0.00 0.00 0.00 0.00 0.00 0.01 0.01 0.01 0.15 0.19 0.06 0.04 0.06 0.07 0.15 0.02 0.00 0.00 0.00 0.00 0.00 0.00 0.00 0.00 0.00 0.00 0.01 0.01 0.01 0.00 0.00 0.00 0.00 0.00 0.00 0.00
0.03 0.09 0.04 0.00 0.00 0.00 0.00 0.00 0.00 0.00 0.00 0.00 0.00 0.00 0.01 0.01 0.04 0.23 0.14 0.09 0.09 0.08 0.09 0.08 0.01 0.02 0.01 0.00 0.00 0.00 0.00 0.00 0.00 0.00 0.00 0.00 0.00 0.00 0.00 0.00 0.00 0.00 0.00 0.00
0.00 0.02 0.04 0.01 0.00 0.00 0.00 0.00 0.00 0.00 0.00 0.00 0.00 0.00 0.00 0.00 0.02 0.03 0.04 0.11 0.15 0.11 0.10 0.07 0.00 0.00 0.02 0.02 0.01 0.00 0.00 0.01 0.01 0.01 0.00 0.00 0.00 0.00 0.00 0.00 0.00 0.00 0.00 0.00
0.00 0.02 0.02 0.01 0.01 0.00 0.00 0.00 0.00 0.00 0.00 0.00 0.00 0.00 0.00 0.00 0.01 0.11 0.22 0.14 0.19 0.05 0.03 0.03 0.02 0.01 0.01 0.01 0.01 0.00 0.00 0.00 0.00 0.01 0.01 0.00 0.00 0.00 0.00 0.00 0.00 0.00 0.00 0.00
0.04 0.03 0.01 0.01 0.00 0.00 0.00 0.00 0.00 0.00 0.00 0.00 0.00 0.00 0.01 0.01 0.04 0.10 0.24 0.30 0.33 0.17 0.02 0.00 0.00 0.00 0.00 0.00 0.00 0.00 0.00 0.00 0.00 0.00 0.00 0.00 0.00 0.00 0.00 0.00 0.00 0.00 0.00 0.00
0.03 0.03 0.03 0.01 0.01 0.00 0.00 0.00 0.00 0.00 0.00 0.00 0.00 0.00 0.01 0.05 0.18 0.20 0.19 0.27 0.32 0.20 0.01 0.00 0.00 0.00 0.00 0.00 0.00 0.00 0.00 0.00 0.00 0.00 0.00 0.00 0.00 0.00 0.00 0.00 0.00 0.00 0.00 0.00
0.02 0.00 0.01 0.02 0.09 0.05 0.01 0.00 0.00 0.01 0.01 0.00 0.01 0.00 0.04 0.10 0.15 0.21 0.25 0.23 0.23 0.17 0.02 0.00 0.00 0.00 0.00 0.00 0.00 0.00 0.00 0.00 0.00 0.00 0.00 0.00 0.00 0.00 0.00 0.00 0.00 0.00 0.00 0.00
0.01 0.00 0.01 0.14 0.18 0.15 0.05 0.03 0.01 0.01 0.01 0.02 0.06 0.05 0.06 0.10 0.10 0.08 0.09 0.14 0.16 0.17 0.05 0.00 0.00 0.00 0.00 0.00 0.00 0.00 0.00 0.00 0.00 0.00 0.00 0.00 0.00 0.00 0.00 0.00 0.00 0.00 0.01 0.00
0.01 0.01 0.03 0.11 0.07 0.08 0.04 0.03 0.02 0.02 0.02 0.05 0.02 0.02 0.03 0.04 0.05 0.07 0.05 0.03 0.03 0.03 0.00 0.00 0.00 0.00 0.00 0.00 0.00 0.00 0.00 0.00 0.00 0.00 0.00 0.00 0.00 0.00 0.00 0.00 0.00 0.00 0.00 0.00
MSLP
1008.47 1008.45 1007.32 1007.43 1007.72 1007.39 1007.15 1006.89 1006.08 1005.48 1005.07 1004.47 1003.23 1002.00 1000.91 1000.39 1000.06 999.78 999.33 999.01 998.60 998.55 998.49 998.74 999.39 1000.45 1001.49 1002.39 1003.37 1004.25 1005.66 1006.72 1007.60 1008.36 1008.86 1009.28 1009.48 1009.98 1010.39 1010.65 1010.83 1011.15 1011.42 1010.90
1008.32 1007.49 1007.07 1007.36 1007.59 1007.69 1007.32 1006.44 1005.91 1005.21 1004.71 1004.23 1002.54 1000.80 1000.01 999.63 999.19 998.96 998.66 998.46 998.12 997.88 997.80 998.07 998.97 1000.09 1001.00 1001.92 1002.77 1003.72 1005.05 1006.20 1007.10 1007.73 1008.29 1008.79 1009.27 1009.82 1010.07 1010.34 1010.54 1010.76 1010.98 1011.48
1007.30 1006.65 1007.52 1007.41 1007.26 1007.22 1006.75 1006.23 1005.62 1005.22 1004.68 1003.76 1002.01 999.53 998.22 998.00 998.23 998.31 998.04 997.92 997.65 997.32 997.16 997.30 998.33 999.54 1000.50 1001.19 1002.16 1003.16 1004.33 1005.37 1006.47 1007.00 1007.55 1008.10 1008.99 1009.59 1009.98 1010.13 1010.32 1010.44 1010.39 1011.03
1007.44 1007.12 1007.32 1007.24 1006.79 1006.82 1006.15 1006.23 1006.03 1005.41 1004.54 1002.44 1001.83 999.14 997.81 997.58 997.12 996.94 997.02 997.03 996.71 996.55 996.66 996.86 997.22 998.57 999.60 1000.55 1001.87 1002.84 1003.91 1004.94 1005.71 1006.35 1006.98 1007.55 1008.33 1009.11 1009.39 1009.59 1010.19 1010.27 1010.49 1010.78
1006.84 1006.97 1007.13 1006.89 1006.64 1006.79 1006.26 1006.46 1005.96 1005.34 1004.31 1002.92 1001.27 999.93 997.02 997.42 996.73 996.44 996.20 996.14 995.81 995.83 995.78 996.00 996.57 997.58 998.98 1000.07 1001.40 1002.51 1003.59 1004.80 1005.15 1005.89 1006.57 1007.18 1008.16 1008.76 1008.89 1009.49 1010.09 1010.38 1010.73 1011.01
1006.74 1006.83 1006.91 1006.53 1006.65 1006.53 1006.49 1006.34 1005.45 1004.65 1003.86 1002.21 1000.13 999.53 996.80 996.63 996.85 996.31 996.50 996.29 996.29 996.20 996.15 996.14 996.39 997.55 998.55 999.83 1001.18 1002.33 1003.50 1004.56 1004.91 1005.50 1006.42 1007.05 1007.78 1008.42 1008.58 1009.38 1009.76 1010.26 1010.71 1011.11
1006.09 1005.92 1006.21 1006.72 1006.64 1006.59 1006.53 1006.07 1004.36 1003.24 1003.10 1000.85 1000.07 999.36 997.52 997.24 997.98 998.13 997.94 997.73 997.45 996.91 996.40 996.27 996.82 997.46 998.43 999.72 1001.39 1002.46 1003.28 1004.36 1004.83 1005.32 1005.99 1006.71 1007.23 1008.14 1008.51 1008.95 1009.53 1010.11 1010.56 1010.98
1005.29 1005.15 1005.80 1006.08 1005.95 1005.62 1005.69 1005.68 1004.34 1002.83 1001.60 1000.24 999.84 998.75 997.52 998.80 998.99 999.10 999.03 998.93 998.41 997.54 996.97 996.57 996.99 997.79 998.57 1000.03 1001.90 1002.64 1003.24 1004.39 1004.84 1005.36 1005.68 1006.59 1007.27 1008.08 1008.53 1008.77 1008.93 1009.59 1010.30 1010.75
1005.34 1004.99 1005.71 1005.85 1005.77 1005.83 1005.69 1005.37 1004.89 1004.41 1003.32 1002.15 999.94 998.58 998.81 999.16 999.66 999.98 1000.25 1000.36 1000.21 999.23 998.10 997.12 997.50 998.05 998.83 1000.15 1002.07 1002.86 1003.42 1004.23 1004.75 1005.39 1005.92 1006.48 1007.13 1007.72 1008.25 1008.77 1009.21 1009.57 1009.91 1010.35
1005.95 1005.60 1005.47 1005.74 1005.80 1005.74 1005.45 1005.43 1005.69 1005.22 1003.65 1001.38 999.47 999.29 999.66 1000.74 1001.27 1001.32 1001.76 1002.15 1002.17 1001.47 999.92 998.64 998.58 998.98 999.43 1000.89 1002.41 1003.04 1003.57 1004.30 1004.86 1005.54 1006.08 1006.30 1006.89 1007.56 1008.24 1008.77 1009.04 1008.97 1009.47 1010.02
1006.77 1006.26 1005.60 1005.80 1005.07 1004.35 1005.44 1005.26 1005.85 1006.18 1004.68 1002.69 1001.54 1002.21 1003.21 1003.30 1003.43 1003.57 1003.77 1004.13 1003.95 1003.41 1002.39 1000.61 1000.24 1000.21 1000.69 1002.00 1002.89 1003.54 1003.78 1004.30 1005.03 1005.83 1006.29 1006.33 1006.74 1007.42 1008.16 1008.53 1008.96 1009.23 1009.57 1009.92
1007.50 1006.88 1005.66 1004.59 1004.15 1004.48 1004.22 1004.39 1005.08 1005.24 1004.79 1004.60 1004.31 1003.29 1004.18 1004.77 1004.92 1005.23 1005.53 1005.87 1005.72 1005.32 1004.60 1003.50 1002.37 1002.22 1002.47 1003.17 1003.77 1004.15 1004.03 1004.26 1004.86 1006.01 1006.47 1006.67 1007.00 1007.24 1007.80 1008.34 1008.90 1009.35 1009.59 1009.92
1010.41 1008.16 1006.31 1004.83 1004.98 1004.61 1004.33 1004.68 1005.71 1006.14 1006.09 1004.85 1004.51 1003.82 1004.74 1005.23 1005.68 1006.07 1006.55 1007.01 1007.12 1006.84 1006.36 1005.47 1004.89 1004.90 1004.91 1004.80 1004.82 1005.03 1005.03 1005.11 1005.84 1006.51 1006.88 1007.25 1007.67 1007.94 1008.19 1008.31 1008.44 1008.86 1009.31 1009.86
1011.74 1009.12 1006.86 1005.14 1005.79 1004.36 1004.32 1004.38 1004.78 1005.15 1005.14 1004.20 1003.85 1003.80 1004.31 1004.72 1005.38 1006.23 1006.93 1007.79 1008.18 1008.15 1008.12 1007.47 1007.02 1006.99 1006.96 1006.83 1006.71 1006.53 1006.36 1006.38 1006.72 1007.17 1007.59 1008.02 1008.16 1008.34 1008.45 1008.76 1008.89 1008.98 1009.17 1009.41
1011.52 1009.35 1007.54 1006.84 1006.30 1005.90 1004.64 1004.24 1004.13 1004.18 1004.15 1003.87 1002.96 1002.75 1002.74 1003.28 1004.24 1005.80 1006.71 1008.04 1008.72 1009.34 1009.66 1009.10 1008.52 1008.77 1008.86 1008.42 1008.15 1008.02 1007.87 1008.11 1008.36 1008.61 1008.85 1009.24 1009.38 1009.42 1009.51 1009.61 1009.72 1009.62 1009.59 1009.64
1011.70 1009.36 1007.68 1006.98 1006.66 1005.68 1004.78 1004.15 1003.71 1003.53 1003.33 1003.16 1002.92 1002.60 1002.71 1003.51 1004.45 1006.07 1006.98 1008.25 1009.52 1010.26 1010.88 1010.58 1010.34 1010.12 1009.83 1009.97 1009.47 1009.43 1009.42 1009.49 1009.67 1009.91 1010.05 1010.24 1010.22 1010.38 1010.67 1010.77 1010.82 1010.82 1010.95 1011.14
1011.58 1009.76 1007.49 1006.50 1005.95 1005.43 1004.35 1003.42 1003.31 1003.24 1003.10 1003.18 1003.00 1003.32 1003.61 1004.35 1005.65 1006.47 1007.83 1009.04 1010.05 1011.07 1011.68 1011.90 1011.72 1011.31 1011.34 1011.24 1010.93 1010.50 1010.55 1010.77 1010.98 1010.89 1011.20 1011.46 1011.08 1010.97 1011.52 1011.72 1011.76 1011.83 1012.19 1012.57
1010.92 1009.85 1007.91 1006.42 1005.87 1004.79 1004.07 1003.79 1003.48 1003.53 1003.51 1004.04 1004.11 1004.77 1005.42 1006.60 1007.83 1008.83 1009.73 1010.65 1011.40 1012.20 1012.45 1012.68 1012.65 1012.45 1012.03 1012.14 1011.97 1011.92 1011.63 1011.73 1011.80 1011.95 1012.39 1012.80 1012.01 1011.47 1012.20 1012.45 1012.60 1012.72 1013.27 1013.78
1010.44 1009.74 1008.24 1006.69 1005.65 1004.78 1004.24 1004.72 1004.72 1004.54 1004.60 1005.68 1005.96 1006.34 1007.25 1008.71 1009.41 1010.95 1011.93 1012.52 1012.87 1013.59 1013.54 1012.27 1013.10 1013.27 1012.78 1012.92 1012.86 1012.91 1012.92 1013.20 1013.49 1013.84 1013.98 1013.25 1011.95 1012.87 1013.83 1013.87 1013.91 1013.87 1014.02 1014.59
1009.63 1009.33 1008.69 1007.37 1006.24 1005.39 1005.25 1005.88 1006.10 1005.96 1005.77 1007.22 1007.73 1008.09 1008.23 1009.26 1010.53 1012.55 1013.57 1013.92 1014.14 1014.50 1014.40 1014.06 1013.97 1013.94 1013.77 1013.75 1013.75 1013.74 1013.84 1013.96 1013.45 1013.71 1014.10 1013.50 1014.62 1014.41 1014.66 1015.24 1015.11 1015.25 1015.23 1015.47
1008.57 1008.65 1008.18 1007.43 1006.93 1006.55 1007.09 1007.16 1007.02 1007.50 1008.94 1009.03 1009.54 1010.04 1009.67 1010.24 1012.30 1013.91 1014.84 1015.23 1015.47 1015.32 1015.04 1014.87 1014.83 1014.72 1014.56 1014.65 1014.61 1014.30 1014.45 1014.44 1015.18 1015.44 1016.14 1015.85 1015.78 1015.42 1015.87 1016.10 1016.26 1016.28 1016.05 1016.08
1007.80 1008.02 1007.90 1007.94 1008.05 1008.16 1008.72 1008.17 1008.92 1010.57 1010.54 1010.80 1011.35 1011.99 1012.60 1013.56 1014.42 1015.32 1015.91 1016.16 1016.18 1016.07 1015.77 1015.52 1015.35 1015.53 1015.65 1015.58 1015.64 1015.84 1016.34 1016.87 1016.67 1017.12 1017.42 1017.21 1016.71 1016.83 1016.77 1017.04 1017.53 1017.21 1016.68 1016.80
1008.93 1009.36 1009.07 1008.92 1009.48 1010.34 1011.05 1011.40 1012.16 1012.00 1012.07 1012.47 1012.88 1013.60 1014.31 1015.09 1015.89 1016.51 1016.90 1017.08 1017.03 1016.82 1016.31 1016.19 1016.31 1016.67 1016.98 1016.85 1016.73 1016.81 1017.26 1017.35 1017.30 1017.73 1017.91 1017.73 1018.11 1018.09 1018.15 1018.12 1018.26 1017.62 1017.57 1017.42
1010.15 1010.82 1010.62 1010.98 1012.06 1012.46 1013.02 1013.47 1013.80 1013.83 1014.01 1014.42 1014.71 1015.28 1016.03 1016.50 1017.24 1017.57 1017.81 1018.13 1018.04 1017.94 1017.46 1017.24 1017.35 1017.69 1018.15 1018.34 1018.25 1018.28 1018.40 1018.42 1018.52 1018.72 1018.91 1019.22 1019.24 1019.46 1019.68 1019.61 1019.32 1019.03 1018.85 1018.95
1012.58 1012.22 1012.69 1013.05 1013.77 1014.08 1014.76 1014.89 1014.88 1015.17 1015.56 1015.80 1016.15 1016.59 1017.12 1017.62 1018.04 1018.41 1018.83 1019.18 1019.19 1018.89 1018.60 1018.43 1018.75 1019.08 1019.30 1019.40 1019.43 1019.32 1019.29 1019.30 1019.46 1019.66 1019.96 1020.18 1020.36 1020.66 1021.09 1021.27 1021.23 1021.17 1021.18 1020.63
1014.22 1014.56 1014.37 1014.27 1014.85 1015.06 1016.01 1016.21 1016.24 1016.29 1016.65 1016.92 1017.13 1017.59 1018.11 1018.48 1018.91 1019.41 1019.59 1019.84 1019.91 1019.77 1019.78 1019.91 1020.49 1020.61 1020.78 1020.90 1020.91 1020.83 1020.53 1020.17 1020.11 1020.24 1020.49 1020.86 1020.86 1021.10 1021.41 1022.04 1022.75 1023.16 1023.09 1022.92
Thickness
5561 5557 5567 5571 5571 5581 5580 5574 5581 5597 5607 5606 5614 5626 5643 5655 5658 5660 5666 5670 5676 5679 5689 5694 5696 5694 5691 5690 5685 5679 5666 5658 5652 5644 5642 5639 5638 5634 5630 5626 5622 5619 5617 5619
5551 5554 5572 5572 5569 5565 5569 5575 5580 5591 5602 5602 5617 5630 5644 5652 5657 5660 5663 5666 5671 5678 5686 5691 5692 5689 5687 5686 5683 5677 5666 5657 5650 5646 5644 5640 5636 5631 5628 5623 5618 5616 5614 5612
5553 5566 5560 5561 5563 5562 5569 5572 5580 5582 5592 5603 5614 5634 5650 5659 5658 5658 5663 5666 5670 5676 5682 5690 5689 5686 5685 5685 5682 5675 5667 5659 5651 5650 5646 5641 5634 5629 5624 5620 5617 5615 5614 5611
5547 5557 5551 5554 5561 5563 5563 5570 5569 5573 5580 5598 5610 5612 5643 5651 5654 5659 5661 5662 5670 5678 5684 5689 5693 5688 5687 5685 5680 5673 5666 5658 5653 5651 5645 5640 5635 5627 5626 5621 5615 5612 5609 5606
5547 5547 5544 5546 5555 5557 5558 5562 5565 5571 5576 5586 5603 5602 5641 5643 5643 5651 5660 5666 5675 5681 5686 5690 5693 5692 5687 5685 5677 5671 5665 5655 5654 5650 5645 5641 5633 5629 5628 5621 5614 5609 5606 5604
5545 5550 5546 5550 5552 5555 5558 5555 5565 5574 5575 5573 5608 5606 5632 5638 5639 5649 5651 5660 5665 5671 5677 5686 5692 5688 5685 5681 5674 5668 5661 5653 5653 5649 5643 5638 5633 5628 5628 5619 5616 5609 5605 5603
5545 5546 5549 5544 5539 5546 5548 5550 5562 5571 5560 5584 5604 5599 5623 5635 5628 5628 5632 5641 5650 5660 5670 5679 5680 5681 5681 5676 5665 5662 5658 5650 5649 5647 5642 5638 5635 5628 5625 5622 5616 5610 5606 5603
5543 5544 5540 5544 5544 5546 5546 5549 5559 5562 5579 5595 5604 5596 5620 5616 5619 5621 5625 5630 5640 5654 5665 5674 5677 5676 5675 5669 5655 5656 5654 5646 5646 5644 5642 5636 5632 5625 5622 5622 5620 5614 5607 5604
5534 5540 5540 5540 5544 5546 5541 5542 5559 5551 5563 5561 5596 5615 5612 5615 5611 5610 5610 5613 5618 5636 5654 5668 5670 5671 5671 5666 5651 5650 5648 5645 5644 5640 5637 5633 5629 5625 5621 5618 5616 5613 5611 5607
5531 5526 5538 5536 5538 5540 5543 5548 5534 5542 5549 5572 5609 5608 5601 5589 5590 5597 5595 5596 5599 5611 5635 5654 5659 5660 5664 5655 5645 5645 5644 5641 5641 5636 5631 5631 5627 5623 5618 5615 5613 5615 5613 5609
5521 5521 5527 5529 5534 5543 5533 5537 5534 5525 5548 5568 5582 5572 5559 5561 5566 5570 5576 5575 5580 5590 5604 5635 5643 5645 5647 5641 5637 5636 5638 5639 5636 5630 5626 5628 5625 5620 5615 5613 5611 5610 5608 5606
5510 5511 5519 5534 5545 5544 5550 5547 5542 5542 5548 5543 5543 5568 5554 5551 5553 5552 5554 5554 5561 5570 5584 5598 5619 5624 5628 5626 5626 5626 5632 5636 5635 5626 5623 5621 5619 5619 5614 5612 5609 5606 5605 5603
5460 5495 5512 5526 5526 5533 5535 5538 5517 5512 5516 5537 5542 5561 5546 5545 5544 5544 5540 5538 5544 5552 5563 5577 5586 5590 5596 5605 5613 5614 5619 5624 5621 5617 5615 5613 5611 5609 5608 5609 5609 5607 5605 5601
5436 5484 5509 5527 5503 5529 5526 5533 5534 5529 5525 5543 5546 5547 5546 5544 5541 5538 5537 5528 5530 5537 5544 5555 5561 5566 5573 5580 5586 5592 5598 5607 5609 5607 5604 5601 5603 5604 5602 5601 5602 5602 5602 5602
5435 5475 5498 5500 5497 5504 5522 5527 5533 5532 5534 5533 5553 5557 5562 5561 5556 5543 5543 5528 5526 5523 5526 5535 5545 5547 5551 5561 5567 5572 5579 5584 5585 5584 5585 5582 5584 5587 5588 5589 5589 5591 5594 5596
5426 5469 5493 5492 5490 5503 5510 5521 5529 5533 5538 5542 5547 5550 5562 5557 5552 5537 5534 5522 5514 5511 5510 5518 5525 5531 5539 5543 5552 5556 5561 5565 5565 5565 5568 5569 5572 5572 5572 5573 5574 5576 5576 5577
5422 5447 5487 5491 5498 5499 5507 5521 5526 5530 5536 5537 5536 5544 5553 5548 5539 5536 5525 5518 5503 5496 5498 5502 5507 5515 5519 5523 5532 5542 5546 5547 5548 5552 5553 5554 5559 5561 5558 5557 5559 5561 5561 5559
5422 5432 5466 5487 5492 5494 5510 5519 5525 5525 5530 5527 5532 5529 5530 5518 5501 5499 5500 5496 5489 5481 5478 5486 5494 5502 5509 5511 5518 5524 5530 5532 5534 5538 5536 5534 5543 5551 5547 5546 5546 5547 5543 5541
5425 5434 5457 5480 5490 5502 5508 5504 5507 5512 5518 5510 5513 5518 5507 5490 5488 5473 5469 5467 5467 5464 5468 5474 5481 5485 5496 5498 5503 5506 5511 5512 5512 5511 5513 5523 5536 5529 5523 5525 5527 5529 5530 5526
5428 5441 5444 5472 5477 5482 5498 5494 5497 5504 5512 5496 5496 5499 5506 5500 5509 5469 5454 5453 5453 5453 5455 5459 5467 5473 5478 5481 5488 5492 5494 5496 5502 5504 5503 5511 5503 5505 5506 5503 5507 5509 5510 5509
5441 5447 5455 5472 5478 5488 5480 5484 5491 5495 5488 5478 5474 5467 5485 5497 5463 5442 5436 5436 5438 5443 5446 5450 5454 5459 5465 5467 5472 5477 5479 5484 5480 5479 5475 5480 5484 5487 5487 5485 5486 5488 5492 5493
5457 5458 5460 5468 5465 5473 5463 5481 5485 5454 5455 5457 5451 5444 5437 5433 5430 5428 5426 5425 5426 5431 5436 5442 5446 5446 5449 5453 5456 5456 5453 5452 5457 5454 5454 5459 5465 5464 5466 5465 5460 5467 5474 5474
5440 5438 5451 5466 5461 5444 5435 5437 5426 5435 5439 5438 5437 5432 5427 5421 5417 5416 5415 5414 5415 5420 5431 5432 5431 5430 5430 5435 5440 5440 5439 5440 5443 5440 5438 5442 5440 5442 5442 5443 5443 5451 5453 5457
5429 5421 5430 5431 5413 5413 5412 5411 5409 5411 5413 5413 5414 5412 5407 5406 5403 5402 5403 5402 5405 5408 5416 5420 5421 5419 5415 5416 5420 5421 5422 5423 5423 5423 5423 5421 5422 5421 5421 5423 5426 5429 5432 5432
5395 5412 5405 5408 5400 5398 5391 5395 5401 5399 5397 5396 5397 5397 5398 5396 5395 5395 5392 5390 5391 5396 5400 5405 5403 5403 5402 5403 5404 5406 5408 5409 5408 5408 5407 5406 5406 5404 5401 5401 5402 5403 5404 5409
5380 5379 5396 5410 5390 5390 5381 5382 5386 5388 5386 5386 5388 5386 5384 5383 5381 5379 5379 5381 5383 5386 5388 5389 5384 5384 5385 5385 5385 5387 5390 5395 5397 5397 5396 5393 5395 5394 5392 5386 5379 5377 5377 5377